Regional Weather Roundup
Issued by NWS

Home | Current Version | Previous Version | Text Only | Print | Product List | Glossary Off
Versions: 1 2 3 4 5 6 7 8 9 10 11 12 13 14 15 16 17 18 19 20 21 22 23 24 25 26 27 28 29 30 31 32 33 34 35 36 37 38 39 40 41 42 43 44 45 46 47 48 49 50

000
ASUS44 KMEG 141710
RWRTN
TENNESSEE HOURLY STATE WEATHER ROUNDUP
NATIONAL WEATHER SERVICE MEMPHIS TN
1100 AM CST THU DEC 14 2017

TNZ002-004-019-021-049-052-054-088>092-141800-
WEST TENNESSEE

CITY           SKY/WX    TMP DP  RH WIND       PRES   REMARKS
MEMPHIS INTL   MOSUNNY   47  28  47 VRB5      30.06S
NWS MEMPHIS      N/A     44 N/A N/A MISG        N/A
JACKSON        MOSUNNY   46  29  51 N10       30.05S
DYERSBURG      CLOUDY    42  26  53 NE8       30.08S
SOMERVILLE     SUNNY     45  28  53 VRB6G14   30.03F
COVINGTON      MOSUNNY   43  27  52 NE10      30.07S
UNION CITY     CLOUDY    39  25  56 N9        30.07S WCI  33
BOLIVAR        SUNNY     45  28  53 VRB7      30.04R
PARIS          CLOUDY    37  27  65 VRB5      30.05R WCI  34
HUNTINGDON     CLOUDY    43  27  52 N8        30.05S
LEXINGTON      SUNNY     43  27  52 NW7G13    30.03F
SELMER         SUNNY     45  30  57 CALM      30.02S
SAVANNAH       SUNNY     45  32  61 N6        30.02S
$$

TNZ008-025-027-028-033-062-065-066-141800-
NORTH MIDDLE TENNESSEE

CITY           SKY/WX    TMP DP  RH WIND       PRES   REMARKS
NASHVILLE      CLOUDY    40  26  57 N10       30.03R WCI  33
PORTLAND       CLOUDY    36  25  64 NW7       30.00S WCI  30
CLARKSVILLE    CLOUDY    36  21  54 N10       30.05S WCI  28
SMYRNA         CLOUDY    39  27  62 N9        30.03R WCI  33
COOKEVILLE     MOSUNNY   41  27  56 VRB5      29.96S
GALLATIN       CLOUDY    37  27  65 N6        30.04S WCI  33
CROSSVILLE     MOSUNNY   37  26  64 W5        29.92F WCI  33
$$

TNZ061-075-076-078-094-096-097-141800-
SOUTH MIDDLE TENNESSEE

CITY           SKY/WX    TMP DP  RH WIND       PRES   REMARKS
FAYETTEVILLE   SUNNY     45  30  57 VRB5      29.97S
TULLAHOMA      SUNNY     43  28  56 NW9       29.97S
WINCHESTER     SUNNY     43  30  61 VRB3      29.97S
MCMINNVILLE    MOSUNNY   41  28  60 N6        29.97R
COLUMBIA       SUNNY     43  27  52 N3        29.99F
SHELBYVILLE    MOSUNNY   43  28  56 CALM      29.99R
$$

TNZ017-018-042-046-047-141800-
NORTHEAST TENNESSEE

CITY           SKY/WX    TMP DP  RH WIND       PRES   REMARKS
TRI CITIES     MOSUNNY   43  28  55 NW8       29.89F
ELIZABETHTON   PTSUNNY   43  27  52 W8G14     29.88F
$$

TNZ012-013-036-069-073-074-141800-
CENTRAL EAST TENNESSEE

CITY           SKY/WX    TMP DP  RH WIND       PRES   REMARKS
KNOXVILLE      MOSUNNY   46  32  58 SW6       29.91F
OAK RIDGE      SUNNY     45  29  53 CALM      29.93F
DOWNTOWN KNOXV SUNNY     46  30  53 SW6       29.92F
GATLINBURG     SUNNY     46  28  49 NW8       29.91F
MORRISTOWN     MOSUNNY   45  28  53 VRB7      29.90S
JACKSBORO      SUNNY     43  27  52 SW3       29.96F
$$

TNZ083-085-099-141800-
SOUTHEAST TENNESSEE

CITY           SKY/WX    TMP DP  RH WIND       PRES   REMARKS
CHATTANOOGA    MOSUNNY   49  29  46 N5        29.95S
DAYTON         SUNNY     46  32  57 VRB5      29.94S
$$

SKY/WX REPORTED AS FAIR MEANS FEW OR NO CLOUDS BELOW
12 THOUSAND FEET.





USA.gov is the U.S. government's official web portal to all federal, state and local government web resources and services.